Regional Weather Roundup
Issued by NWS

Home | Current Version | Previous Version | Graphics & Text | Print | Product List | Glossary On
Versions: 1 2 3 4 5 6 7 8 9 10 11 12 13 14 15 16 17 18 19 20 21 22 23 24 25 26 27 28 29 30 31 32 33 34 35 36 37 38 39 40 41 42 43 44 45 46 47 48 49 50
000
ASUS45 KTFX 202004
RWRMT
MONTANA HOURLY WEATHER ROUNDUP
NATIONAL WEATHER SERVICE GREAT FALLS MT
204 PM MDT SUN APR 20 2014

NOTE: "FAIR" INDICATES FEW OR NO CLOUDS BELOW 12000 FEET WITH NO
SIGNIFICANT WEATHER AND/OR OBSTRUCTIONS TO VISIBILITY.

* THESE STATIONS ARE NOT UNDER NWS QUALITY CONTROL. THEY DO NOT
   REPORT WEATHER SUCH AS PRECIPITATION OR FOG.

MTZ001>007-043-202100-
WEST OF THE DIVIDE
CITY           SKY/WX    TMP DP  RH WIND       PRES   REMARKS
KALISPELL      CLOUDY    55  27  34 SW12G20   30.20F
MISSOULA       SUNNY     55  21  27 N8G18     30.24F
BUTTE          SUNNY     52  12  20 NW13      30.18S
MULLAN PASS    PTSUNNY   36  19  50 SW9       30.23S WCI  29
* ESSEX        N/A       47  25  42 S4G12      N/A
* LINCOLN      N/A       51  19  28 SW8G26     N/A
* LOOKOUT PASS N/A       44  22  42 SE6G13     N/A
* POLSON       N/A       56  27  33 SW3        N/A
* SEELEY LAKE  N/A       49  19  30 W10G19     N/A
* THOMP F APT  SUNNY     59  10  14 NW4G16     N/A
$$

MTZ008-052>055-202100-
SOUTHWEST MONTANA
CITY           SKY/WX    TMP DP  RH WIND       PRES   REMARKS
BOZEMAN        SUNNY     61  12  14 NW20G28   30.14F
DILLON         SUNNY     55   1  11 SW20G28   30.17F
W YELLOWSTONE  N/A       58  20  23 SW5G11     N/A
* THREE FORKS  SUNNY     59  16  18 W18G23     N/A
* BOULDER HILL N/A       51  17  26 SW7G20     N/A
* MONIDA PASS  N/A       51  12  21 W4G14      N/A
* RAYNOLDS PAS N/A       49  40  71 SW12G20    N/A
* WHITEHALL    N/A       61  14  16 W6G19      N/A
* WISE RIVER   N/A       51  11  20 W16G24     N/A
$$

MTZ009>010-012-014-046-048-049-054-202100-
EAST SLOPES AND CENTRAL MONTANA
CITY           SKY/WX    TMP DP  RH WIND       PRES   REMARKS
CUT BANK       SUNNY     55  21  27 W31G36    30.07R
GREAT FALLS    PTCLDY    57  16  20 W25G33    30.09R
HELENA         PTCLDY    57  16  20 NW15G24   30.15F
MALMSTROM AFB  PTCLDY    57  12  17 SW16G28   30.07S
* CONRAD       SUNNY     55  21  27 W24G32     N/A
* DEARBORN     N/A       54  16  22 S20G31     N/A
* MONARCH      N/A       48  11  22 W13G27     N/A
* PENDROY      N/A       54  20  26 NW29G36    N/A
* ROGERS PASS  N/A       44  15  31 SE17G27    N/A
* SAINT MARY   N/A       44  26  49 SW10G27    N/A
* SWEET GRASS  N/A       54  19  25 NW23G35    N/A
$$

MTZ011-013-016-021-035-040-045-047-050-051-202100-
NORTH CENTRAL MONTANA
CITY           SKY/WX    TMP DP  RH WIND       PRES   REMARKS
HAVRE          PTSUNNY   61  25  25 NW25G36   30.01R
LEWISTOWN      SUNNY     55  14  20 NW22G33   30.08R
* CHESTER      N/A       56  20  24 NW17G32    N/A
* DENTON       N/A       59  21  23 W26G32     N/A
* GEYSER       N/A       55  16  21 W28G35     N/A
* JUDITH GAP   N/A       55  15  20 NW22G29    N/A
* LOMA         N/A       61  19  20 SW20G35    N/A
$$

MTZ017>020-022>027-061-062-202100-
NORTHEAST MONTANA
CITY           SKY/WX    TMP DP  RH WIND       PRES   REMARKS
GLASGOW        PTCLDY    64  28  26 W32G39    29.95R
GLENDIVE       SUNNY     64  27  25 W21G33    29.99R
JORDAN         SUNNY     64  18  17 W25G38    30.00R
SIDNEY         PTCLDY    64  28  26 W22G31    29.94F
WOLF POINT     SUNNY     66  25  21 W29G45    29.93S
* BEAVER HILL  N/A       63  22  21 W27G37     N/A
* CIRCLE       N/A       63  28  27 NW20G25    N/A
* LINDSAY DVD  N/A       60  21  22 W24G37     N/A
* NAVAJO       N/A       61  28  29 W29G39     N/A
* SACO         N/A       61  25  25 W27G33     N/A
$$

MTZ028>042-056>058-202100-
SOUTHCENTRAL AND SOUTHEAST MONTANA
CITY           SKY/WX    TMP DP  RH WIND       PRES   REMARKS
BAKER          PTCLDY    64  27  25 W17G31    29.99R
BILLINGS       PTCLDY    64  12  13 W18G31    30.06F
LIVINGSTON     PTCLDY    63  16  16 NW26G32   30.11S
MILES CITY     SUNNY     66  19  16 NW24G36   30.01R
* LAUREL APT   PTCLDY    61  19  20 W14G22     N/A
* ROUNDUP APT  SUNNY     61   9  13 W24G32     N/A
* HYSHAM       N/A       62  18  18 W17G24     N/A
* LAME DEER    N/A       59  22  24 NW14G26    N/A
* REED POINT   N/A       62  22  21 W24G32     N/A
* ROSCOE HILL  N/A       56  12  17 NW17G24    N/A
$$

REGIONAL REPORTS...DAKOTAS
CITY           SKY/WX    TMP DP  RH WIND       PRES   REMARKS
WILLISTON      PTCLDY    66  27  23 W22G36    29.89R
DICKINSON      CLOUDY    70  27  20 W23G31    29.91R
CROSBY         SUNNY     61  32  34 NW22G28   29.87R
TIOGA          SUNNY     63  32  31 NW26G37   29.90R
WATFORD CITY   SUNNY     66  30  26 W23G31    29.89R
BISMARCK       PTSUNNY   75  32  21 S16G23    29.87F
GRAND FORKS    PTSUNNY   68  39  35 S12       29.94F
FARGO          SUNNY     73  34  24 S10       29.94F
BUFFALO SD     CLOUDY    64  28  26 NW30G36   29.92R
RAPID CITY     PTCLDY    73  43  34 N17G23    29.94R
$$

REGIONAL REPORTS...WYOMING/IDAHO/WASHINGTON
CITY           SKY/WX    TMP DP  RH WIND       PRES   REMARKS
GILLETTE       PTSUNNY   61  30  31 N14       30.07S
SHERIDAN       SUNNY     63  36  37 NW16      30.07F
CODY           PTCLDY    61  32  34 N9G18     30.08S
YELLOWSTONE LA PTCLDY    48  19  32 VRB5      30.22S
SALMON         SUNNY     55  19  24 E5        30.19F
MULLAN PASS    PTSUNNY   36  19  50 SW9       30.23S WCI  29
SPOKANE        PTSUNNY   52  27  38 SW10      30.25F

$$




USA.gov is the U.S. government's official web portal to all federal, state and local government web resources and services.